Miscellaneous Local Product
Issued by NWS North Platte, NE

Home | Current Version | Previous Version | Text Only | Print | Product List | Glossary On
Versions: 1 2 3 4 5 6 7 8 9 10 11 12 13 14 15 16 17 18 19 20 21 22 23 24 25 26 27 28 29 30 31 32 33 34 35 36 37 38 39 40 41 42 43 44 45 46 47 48 49 50
000
AXUS43 KLBF 030410
MISLBF


WESTERN AND NORTH CENTRAL NEBRASKA HOURLY WEATHER ROUNDUP
NATIONAL WEATHER SERVICE NORTH PLATTE NE
1000 PM CST FRI DEC 02 2016

NOTE: "FAIR" INDICATES FEW OR NO CLOUDS BELOW 12,000 FEET WITH NO
SIGNIFICANT WEATHER AND/OR OBSTRUCTIONS TO VISIBILITY.

NOTE: STATIONS NOT REPORTING VARIABLES SUCH AS SKY/WEATHER OR
PRESSURE ARE PROVIDED BY RAWS AND APRS NETWORKS AND ARE NOT UNDER
NATIONAL WEATHER SERVICE QUALITY CONTROL.

...OBSERVATIONS IN AND NEAR THE EASTERN PANHANDLE OF NEBRASKA...

CITY           SKY/WX    TMP DP  RH WIND       PRES   REMARKS
PINE RIDGE     PTCLDY    19  18  95 NW3       30.18S
CHADRON        CLOUDY    20  14  77 W7        30.18F WCI  11
ALLIANCE       CLEAR     16  12  84 S5        30.18F WCI   9
SIDNEY         CLEAR     18  14  84 SW7       30.19F WCI   9
CRESCENT LAKE    N/A     28  21  74 CALM        N/A
$$

...OBSERVATIONS IN NORTHERN NEBRASKA AND FAR SOUTHERN SOUTH DAKOTA...

CITY           SKY/WX    TMP DP  RH WIND       PRES   REMARKS
WINNER         FAIR      24  20  84 S5        30.24F WCI  18
VALENTINE      CLEAR     21  17  84 SW6       30.22S WCI  13
THEDFORD       PTCLDY    24  19  81 SW3       30.24S
AINSWORTH      CLEAR     23  21  92 S7        30.23S WCI  14
O`NEILL        CLEAR     26  25  94 S5        30.27R WCI  21
ORD            CLEAR     22  17  81 S6        30.27S WCI  14
BROKEN BOW     CLEAR     24  21  88 CALM      30.25F
BUTTE            N/A     27  25  90 E3          N/A
HALSEY           N/A     26  18  71 CALM        N/A
CHAMBERS         N/A     25  21  84 SE3         N/A
EWING            N/A     25  23  91 CALM        N/A
$$

...OBSERVATIONS IN SOUTHWEST NEBRASKA AND FAR NORTHEAST COLORADO...

CITY           SKY/WX    TMP DP  RH WIND       PRES   REMARKS
WRAY           MOCLDY    28  21  74 W3        30.23S
HOLYOKE        FAIR      28  19  69 S6        30.22F WCI  22
IMPERIAL       CLOUDY    28  21  75 CALM      30.24S
OGALLALA       CLEAR     22  19  87 CALM      30.23S
MCCOOK         CLOUDY    28  20  71 SW3       30.27S
LEXINGTON      CLEAR     23  21  90 CALM      30.27S
STAPLETON        N/A     22  19  86 CALM        N/A
GOTHENBURG       N/A     26  21  80 CALM        N/A
CALLAWAY         N/A     24  20  86 CALM        N/A
$$

...OBSERVATIONS IN CENTRAL LINCOLN COUNTY AREA...

CITY           SKY/WX    TMP DP  RH WIND       PRES   REMARKS
N.P. DOWNTOWN    N/A     26  22  84 CALM        N/A
N.P. SOUTHEAST   N/A     26  21  80 CALM        N/A
N.P. HILLCREST   N/A     30  23  74 CALM        N/A
$$

...SOME OBSERVATIONS FROM AROUND THE REGION...

CITY           SKY/WX    TMP DP  RH WIND       PRES   REMARKS
LARAMIE        CLOUDY    13  11  92 S10       30.06F WCI   0
CHEYENNE       CLOUDY    24  22  91 S8        30.11F WCI  15
DENVER         PTCLDY    20  15  81 S12       30.15S WCI   8
AKRON          MOCLDY    26  18  71 S8        30.18F WCI  18
RAPID CITY     CLEAR     24  19  81 S5        30.16F WCI  18
BISMARCK       CLOUDY    20  18  92 SE5       30.19F WCI  13
PIERRE         FOG       19  17  92 CALM      30.24F VSB 1/2
SIOUX FALLS    CLOUDY    30  24  78 CALM      30.30S
OMAHA          MOCLDY    31  25  78 CALM      30.34S
GRAND ISLAND   CLEAR     24  22  91 CALM      30.30S
OKLAHOMA CITY  LGT RAIN  46  44  93 N7        30.25R
DALLAS         CLOUDY    55  42  61 NE9       30.13F
AMARILLO       CLOUDY    35  34  96 NE14      30.17F WCI  26
DODGE CITY     CLOUDY    38  20  48 CALM      30.28R
HAYS           CLOUDY    30  24  78 CALM      30.31R
$$




USA.gov is the U.S. government's official web portal to all federal, state and local government web resources and services.